www.pogodaiklimat.ru

АРХИВ ПОГОДЫ в Атланте

Время (UTC), дата Ветер
(напр.,м/с)
 
Видим.   Явления Облачность Т
(С)
Тd
(С)
f
(%)
Тe
(С)
Тes
(С)
Комфортность

P
(гПа)

Po
(гПа)
Тmin
(С)
Tmax
(С)
R
(мм)
SD
(см)
00:52 27.09 СЗ  14 км    10/10 м
[средняя верхняя] 
0.0  0.0  100  -5  -5    1017.1  980.6  +22.2  +22.8  0.5   
01:52 27.09 СЗ  16 км    10/10 м
[средняя верхняя] 
0.0  0.0  100  -5  -5    1017.1  980.6  +22.2  +22.8  0.5   
02:52 27.09 СЗ  16 км    10/10 м
[средняя верхняя] 
0.0  0.0  100  -5  -5    1016.9  980.6  +22.2  +22.8  0.5   
03:52 27.09 ЮВ  16 км    10/10 м
[средняя верхняя] 
0.0  0.0  100  -5  -5    1016.9  980.6  +22.2  +22.8  0.5   
04:11 27.09 ЮВ  16 км    10/10 м
[средняя верхняя] 
0.0  0.0  100  -3  -3    1016.7  980.6  +22.2  +22.8  0.5   
05:39 27.09 Ю  11 км    10/10 м
[средняя верхняя] 
0.0  0.0  100  -5  -5    1016.2  980.3  +21.7  +22.2  2.0   
06:52 27.09 ЮВ  16 км    10/10 м
[средняя верхняя] 
0.0  0.0  100  -3  -3    1015.8  979.6  +21.7  +22.2  2.0   
07:52 27.09 Ю  13 км    10/10 м
[средняя верхняя] 
0.0  0.0  100  -3  -3    1016.2  979.6  +21.7  +22.2  2.0   
08:24 27.09 ЮВ  13 км    10/10 м
[средняя верхняя] 
+22.0  +21.0  94  +28  +28  душно  1016.4  979.6  +21.7  +22.2  2.0   
09:25 27.09 Ю  16 км    10/10 м
[средняя верхняя] 
+22.0  +21.0  94  +28  +28  душно  1016.4  980.0  +21.7  +22.2  2.0   
10:27 27.09 ЮВ  14 км    10/10 м
[средняя верхняя] 
+22.0  +21.0  94  +28  +28  душно  1016.6  980.0  +21.7  +22.2  2.0   
11:11 27.09 Ю  5 км    10/10 м
[средняя верхняя] 
+22.0  +21.0  94  +28  +28  душно  1016.9  980.3  +21.7  +28.9  2.0   
13:52 27.09 Ю  13 км    10/10 м
[средняя верхняя] 
+23.9  +21.1  84  +30  +30  очень
душно 
1017.0  980.6  +21.7  +28.9  2.0   
14:52 27.09 Ю  16 км    10/10 м
[средняя верхняя] 
+24.0  +22.0  89  +31  +31  очень
душно 
1016.9  980.6  +21.7  +28.9  2.0   
15:16 27.09 Ю  16 км    10/10 м
[средняя верхняя] 
+25.0  +21.0  78  +31  +31  очень
душно 
1016.6  980.6  +21.7  +28.9  2.0   
16:52 27.09 ЮЗ  16 км    10/10 м
[средняя верхняя] 
+28.3  +21.1  65  +36  +36  очень
душно 
1015.3  979.0  +21.7  +28.9  2.0   
17:14 27.09 ЮЗ  16 км    10/10 м
[средняя верхняя] 
+27.0  +21.0  70  +34  +34  очень
душно 
1013.8  978.3  +22.2  +29.4  2.0   
18:29 27.09 Ю  16 км    10/10 м
[средняя верхняя] 
+28.0  +21.0  66  +35  +35  очень
душно 
1013.7    +22.2  +29.4  2.0   
19:28 27.09 ЮЗ  11 км    10/10 м
[средняя верхняя] 
+23.0  +21.0  89  +31  +31  очень
душно 
1014.4  978.0  +22.2  +29.4  2.0   
20:17 27.09 ЮЗ  16 км    10/10 м
[средняя верхняя] 
+22.0  +21.0  94  +28  +28  душно  1013.8  978.0  +22.2  +29.4  2.8   
21:52 27.09 ЮЗ  16 км    10/10 м
[средняя верхняя] 
+23.0  +21.0  89  +31  +31  очень
душно 
1014.6  978.3  +22.2  +29.4  2.8   
22:33 27.09 З  16 км    10/10 м
[средняя верхняя] 
+23.0  +21.0  89  +31  +31  очень
душно 
1014.7  978.3  +22.2  +29.4  2.8   
23:52 27.09 ЮЗ  16 км    10/10 м
[средняя верхняя] 
+23.0  +21.0  89  +31  +31  очень
душно 
1014.8  978.3  +22.2  +22.8     
00:27 28.09 ЮЗ  16 км    10/10 м
[средняя верхняя] 
+23.0  +21.0  89  +31  +31  очень
душно 
1015.5  979.0  +22.2  +22.8     
01:23 28.09 ЮЗ  16 км    10/10 м
[средняя верхняя] 
+23.0  +21.0  89  +31  +31  очень
душно 
1015.7  979.3  +22.2  +22.8     
02:35 28.09 ЮЗ  16 км    10/10 м
[средняя верхняя] 
+23.0  +21.0  89  +31  +31  очень
душно 
1015.9  979.3  +22.2  +22.8     
03:52 28.09 ЮЗ  16 км    10/10 м
[средняя верхняя] 
+22.8  +21.1  90  +30  +30  очень
душно 
1016.2  980.0  +22.2  +22.8     
04:52 28.09 З  16 км    10/10 м
[средняя верхняя] 
+22.8  +20.6  87  +30  +30  очень
душно 
1016.5  980.3  +22.2  +22.8     
05:21 28.09 З  16 км    10/10 м
[средняя верхняя] 
+22.0  +21.0  94  +28  +28  душно  1016.5  980.0  +21.7  +22.8     
06:52 28.09 З  16 км    10/10 м
[средняя верхняя] 
+22.0  +20.0  88  +28  +28  душно  1016.0  979.6  +21.7  +22.8     
07:23 28.09 З  16 км    10/10 м
[средняя верхняя] 
+22.0  +20.0  88  +28  +28  душно  1016.6  980.0  +21.7  +22.8     
08:52 28.09 З  16 км    10/10 м
[средняя верхняя] 
+22.0  +20.0  88  +28  +28  душно  1017.2  980.6  +21.7  +22.8     
09:42 28.09 З  14 км    10/10 м
[средняя верхняя] 
+22.0  +20.0  88  +28  +28  душно  1018.0  981.3  +21.7  +22.8     
10:52 28.09 З  11 км    10/10 м
[средняя верхняя] 
+21.7  +20.0  90  +27  +27  душно  1019.0  982.6  +21.7  +22.8     
11:52 28.09 штиль  16 км    10/10 м
[средняя верхняя] 
+22.0  +21.0  94  +28  +28  душно  1019.2  982.6  +21.7  +26.7     
12:52 28.09 З   14 км    10/10 м
[средняя верхняя] 
+23.0  +21.0  89  +31  +31  очень
душно 
1019.7  983.2  +21.7  +26.7     
13:28 28.09 З  16 км    10/10 м
[средняя верхняя] 
+24.0  +21.0  83  +30  +30  очень
душно 
1019.9  983.2  +21.7  +26.7     
14:16 28.09 ЮЗ  16 км    10/10 м
[средняя верхняя] 
+24.0  +21.0  83  +30  +30  очень
душно 
1019.8  983.2  +21.7  +26.7     
15:52 28.09 ЮЗ  16 км    10/10 м
[средняя верхняя] 
+26.0  +21.0  74  +33  +33  очень
душно 
1019.9  983.5  +21.7  +26.7     
16:26 28.09 Ю  16 км    10/10 м
[средняя верхняя] 
+26.0  +21.0  74  +33  +33  очень
душно 
1019.3  983.2  +21.7  +26.7     
17:52 28.09 ЮЗ  16 км    10/10 м
[средняя верхняя] 
+26.0  +21.0  74  +33  +33  очень
душно 
1018.9  982.2  +25.0  +28.3     
18:52 28.09 ЮЗ  16 км    10/10 м
[средняя верхняя] 
+28.0  +21.0  66  +35  +35  очень
душно 
1018.2  981.9  +25.0  +28.3     
19:52 28.09 З  16 км    10/10 м
[средняя верхняя] 
+27.8  +20.0  63  +34  +34  очень
душно 
1018.1  981.6  +25.0  +28.3     
20:52 28.09 СЗ  16 км    10/10 м
[средняя верхняя] 
+27.0  +20.0  66  +33  +33  очень
душно 
1018.4  981.9  +25.0  +28.3     
21:52 28.09 ЮЗ  16 км    10/10 м
[средняя верхняя] 
+26.0  +21.0  74  +33  +33  очень
душно 
1018.9  982.6  +25.0  +28.3     
22:52 28.09 ЮЗ  16 км    10/10 м
[средняя верхняя] 
+25.0  +21.1  79  +32  +32  очень
душно 
1019.6  983.2  +25.0  +28.3     
23:52 28.09 З  16 км    10/10 м
[средняя верхняя] 
+24.0  +21.0  83  +30  +30  очень
душно 
1020.1  983.5  +22.2  +25.0     
00:52 29.09 штиль  16 км    10/10 м
[средняя верхняя] 
+23.0  +21.0  89  +31  +31  очень
душно 
1020.5  983.9  +22.2  +25.0     

 

Местоположение метеостанции Hartsfield-Jackson Atlanta International Airport: широта 33.6403 долгота -84.4269 высота над уровнем моря 313 м.

В архиве по умолчанию представлена погода в Атланте за последние 1-2 суток. Обновление информации о фактической погоде в базе происходит ежечасно! Архивные данные за месяц целиком и за предыдущие месяцы Вы можете получить, выбрав интересующий диапазон дат из раскрывающегося списка и нажав кнопку "Ввод!".

Внимание! Архив погоды МЕТАР в базе сайта в настоящее время начинается c 1 января 2013 г. Нет смысла пытаться выбрать более раннюю дату.

Внимание! Время в таблицах - всемирное. Для получения местного времени необходимо прибавить поправку, которая в Атланте равна -5 ч.

Ветер - указаны скорость ветра в м/с и направление, откуда дует ветер: С - северный, СВ - северо-восточный, В - восточный, ЮВ - юго-восточный, Ю - южный, ЮЗ - юго-западный, З - западный, СЗ - северо-западный.
Видимость - горизонтальная дальность видимости в метрах или километрах. При видимости от 1 до 10 км при отсутствии осадков обычно наблюдается дымка, при ухудшении видимости до 1 км и менее - туман. В сухую погоду видимость может ухудшаться дымом, пылью или мглою.
Атмосферные явления - указаны явления, наблюдавшиеся в указанный момент времени.
Облачность - указаны через наклонную черту верхняя и нижняя облачность в баллах и высота нижней границы облаков в метрах. Внимание: облачность, как и прочие метеорологические величины в США измеряются автоматическими метеостанциями. Указанные значения в баллах носят условный характер и показывают процент времени, в течение которого, в среднем, лазерный луч высотомера отражался от облаков обратно.
T - Температура воздуха - температура, измеренная на высоте 2 м над землей.
Td - Температура точки росы - температура, при понижении до которой содержащийся в воздухе водяной пар достигнет насыщения.
f - Относительная влажность воздуха - влажноcть воздуха, измеренная на высоте 2 м над землей.
Te - Эффективная температура - температура, которую ощущает одетый по сезону человек в тени. Характеристика душности погоды. При расчете учитывается влияние влажности воздуха и скорости ветра на теплоощущения человека.
Tes - Эффективная температура на солнце - температура, которую ощущает человек, с поправкой на солнечный нагрев. Характеристика знойности погоды. Зависит от высоты солнца над горизонтом, облачности и скорости ветра. Ночью, в пасмурную погоду, а также при ветре 12 м/с и более поправка равна нулю.
P - Атмосферное давление - приведенное к уровню моря атмосферное давление.
Po - Атмосферное давление - измеренное на уровне метеостанции атмосферное давление.
Tmin - Минимальная температура - минимум температуры воздуха на высоте 2 м над землей.
Tmax - Максимальная температура - максимум температуры воздуха на высоте 2 м над землей.
R - Количество осадков - Количество выпавших осадков за 3 или 6 часов, мм.
SD - Снежный покров - Высота снежного покрова, см.